User: anonymous   Login
Location: Columbia
(38.9520°N, 92.3340°W)
Time: 13:17:49
(UTC-06:00)
Language:

Iridium 22 - Orbit

View from above orbital plane
View from above orbital plane
View from above satellite
View from above satellite

Ground track
Ground track

The orbit data is extracted from the following two-line orbital elements,

1 24907U 97043E   14332.45687409  .00000679  00000-0  23530-3 0   776
2 24907 086.3967 285.4486 0002194 100.9785 021.3149 14.34215193904282
Epoch (UTC): 28 November 2014 10:57:53
Eccentricity: 0.0002194
inclination: 86.3967°
perigee height: 776 km
apogee height: 779 km
right ascension of ascending node: 285.4486°
argument of perigee: 100.9785°
revolutions per day: 14.34215193
mean anomaly at epoch: 21.3149°
orbit number at epoch: 90428

The dashed part of the orbit path shows where the satellite is in the earth's shadow,  

DLR